SL-16 DEB, 22422

Orbit data source: Space-Track

SL-16 DEB, 22422 is space debris in LEO originally from a launch on Fri, 25 Dec 1992 UTC launched from the Tyuratam Missile And Space Complex (TTMTR). Debris objects in space refer to the collection of defunct objects orbiting the Earth. Examples of debris include non-operational satellites, rocket bodies, and fragments generated from explosions, collisions, or faulty payload assembly.

Loading next visibility...
Identifier
22422, 1992-093DP
Orbit
LEO
Country
Flag of CISCIS
Related business
Manufacturer
Unknown
Mission
Spacecraft
Bus & Motor
Unknown
Mass
Unknown
Launch date (UTC)
1992-12-25 (33 years ago)
Launch vehicle
Unknown
Launch site
Tyuratam Missile And Space Complex (TTMTR)
Object type
Payload
Rocket body
Debris
Shape & HBR
Unknown shape, 0.1 m
Radar Cross Section
Medium (>0.1 m² and <1 m²)

Expand to show TLE details & history
Last TLE update: 3 days ago

TLE from 3 days ago
0 SL-16 DEB
1 22422U 92093DP  26171.05694084  .00000214  00000-0  16746-3 0  9992
2 22422  71.1841  24.6161 0090759  67.7910  84.9488 14.00649592704794
Epoch: 2026-06-20T01:21Z
TLE epoch observation values (Epoch: 2026-06-20T01:21:59.688Z)
Latitude
24.76125°
Longitude
-93.15401°
Altitude
888.813 km
Speed
7.413 km/s
True Right ascension
13h 02m 29s
True Declination
24° 37' 59"
Sunlit
Object was in daylight at epoch
Visualization orbit readout
Latitude
Unknown
Longitude
Unknown
Altitude
Unknown
Speed
Unknown
Apparent Right ascension
Unknown
Apparent Declination
Unknown
Sunlit
N/A
Visualization observer readout
Local Sidereal Time
01:06:54
Azimuth
Unknown
Elevation
Unknown
Doppler factor
Unknown
Orbital elements
Apogee altitude
955.427 km
Perigee altitude
823.507 km
Semi-major axis
7,267.604 km
Eccentricity
0.00908
Inclination
71.1841°
RAAN
24.6161°
Arg. of periapsis
67.791°
True anomaly
85.98576°
Mean anomaly
84.9488°
Eccentric anomaly
85.46718°
Mean motion
3.50313 °/min
Orbital period
102.77 mins
BSTAR
0.00016746
Loading maneuver chart data...
Computing Atmospheric mass density...
Loading historical data...
Loading historical data...
Loading historical data...
Loading historical data...
Loading historical data...
Loading historical data...
Loading historical data...

Documentation

Showing up to 5 results
|